Weather History for Oxford, NC

Change the Weather History Date:

Sunday, April 27, 2014

  Actual Average (KTDF) Record (KTDF)
Temperature  
Mean Temperature 64 °F -  
Max Temperature 80 °F 71 °F 91 °F (1990)
Min Temperature 49 °F 46 °F 32 °F (1976)
Growing Degree Days 14 (Base 50)    
Moisture  
Dew Point 46 °F    
Average Humidity 53    
Maximum Humidity 86    
Minimum Humidity 24    
Precipitation  
Precipitation 0.00 in - - ()
Sea Level Pressure  
Sea Level Pressure 29.97 in    
Wind  
Wind Speed 5 mph (ESE)    
Max Wind Speed 9 mph    
Max Gust Speed 14 mph    
Visibility 10 miles    
Events      
Averages and records for this station are not official NWS values.
T = Trace of Precipitation, MM = Missing Value Source: NWS Daily Summary

Daily Weather History Graph

Daily Weather History Graph

Search for Another Location

Airport:

Trip Planner

Search our weather history database for the weather conditions in past years. The results will help you decide how hot, cold, wet, or windy it might be!

Date:

Astronomy

Apr. 27, 2014 Rise Set
Actual Time 6:25 AM EDT 7:58 PM EDT
Civil Twilight 5:58 AM EDT 8:25 PM EDT
Nautical Twilight 5:25 AM EDT 8:58 PM EDT
Astronomical Twilight 4:50 AM EDT 9:33 PM EDT
Moon 5:21 AM EDT (4/27) 6:32 PM EDT (4/27)
Length of Visible Light 14h 27m
Length of Day
13h 33m
Waning Crescent, 3% of the Moon is Illuminated
Apr 27
Waning Crescent
Apr 29
New
May 6
First Quarter
May 14
Full
May 21
Last Quarter

Hourly Weather History & Observations

Time (EDT) Temp. Dew Point Humidity Pressure Visibility Wind Dir Wind Speed Gust Speed Precip Events Conditions
12:15 AM 61.9 °F 43.7 °F 51% 29.91 in 10.0 mi SSW 6.9 mph - N/A   Clear
12:35 AM 60.4 °F 44.4 °F 56% 29.92 in 10.0 mi SSW 5.8 mph - N/A   Clear
12:55 AM 59.0 °F 45.7 °F 61% 29.92 in 10.0 mi SSW 5.8 mph - N/A   Clear
1:15 AM 57.2 °F 46.2 °F 67% 29.92 in 10.0 mi SSW 5.8 mph - N/A   Clear
1:35 AM 57.4 °F 45.5 °F 65% 29.92 in 10.0 mi SSW 6.9 mph - N/A   Clear
1:55 AM 56.8 °F 45.5 °F 66% 29.92 in 10.0 mi SW 5.8 mph - N/A   Clear
2:15 AM 56.5 °F 45.5 °F 67% 29.92 in 10.0 mi SSW 5.8 mph - N/A   Clear
2:35 AM 54.5 °F 45.5 °F 72% 29.91 in 10.0 mi South 4.6 mph - N/A   Clear
2:55 AM 54.1 °F 44.6 °F 70% 29.91 in 10.0 mi SSW 6.9 mph - N/A   Clear
3:15 AM 54.1 °F 44.8 °F 71% 29.92 in 10.0 mi SSW 8.1 mph - N/A   Clear
3:35 AM 53.1 °F 45.0 °F 74% 29.92 in 10.0 mi SSW 6.9 mph - N/A   Clear
3:55 AM 53.1 °F 44.8 °F 73% 29.93 in 10.0 mi SSW 6.9 mph - N/A   Clear
4:15 AM 54.7 °F 44.1 °F 67% 29.93 in 10.0 mi SW 6.9 mph - N/A   Clear
4:35 AM 54.3 °F 44.1 °F 68% 29.94 in 10.0 mi SW 5.8 mph - N/A   Clear
4:55 AM 54.3 °F 44.6 °F 70% 29.95 in 10.0 mi North 4.6 mph - N/A   Clear
5:15 AM 53.6 °F 44.1 °F 70% 29.96 in 10.0 mi Calm Calm - N/A   Clear
5:35 AM 53.6 °F 44.1 °F 70% 29.96 in 10.0 mi Calm Calm - N/A   Clear
5:55 AM 52.2 °F 44.6 °F 75% 29.96 in 10.0 mi Calm Calm - N/A   Clear
6:15 AM 50.4 °F 45.0 °F 82% 29.97 in 10.0 mi Calm Calm - N/A   Clear
6:35 AM 49.6 °F 45.5 °F 86% 29.98 in 10.0 mi Calm Calm - N/A   Clear
6:55 AM 49.6 °F 45.5 °F 86% 29.99 in 10.0 mi Calm Calm - N/A   Clear
7:15 AM 53.6 °F 46.0 °F 76% 30.00 in 10.0 mi NE 4.6 mph - N/A   Clear
7:35 AM 55.9 °F 46.6 °F 71% 30.01 in 10.0 mi Calm Calm - N/A   Clear
7:55 AM 57.4 °F 46.9 °F 68% 30.02 in 10.0 mi NE 3.5 mph - N/A   Clear
8:15 AM 59.0 °F 46.9 °F 64% 30.03 in 10.0 mi NE 3.5 mph - N/A   Clear
8:35 AM 60.3 °F 46.6 °F 61% 30.03 in 10.0 mi NE 8.1 mph - N/A   Clear
8:55 AM 61.7 °F 46.8 °F 58% 30.03 in 10.0 mi ENE 6.9 mph - N/A   Clear
9:15 AM 63.0 °F 46.2 °F 54% 30.03 in 10.0 mi NE 6.9 mph - N/A   Clear
9:35 AM 64.2 °F 46.2 °F 52% 30.03 in 10.0 mi ENE 6.9 mph - N/A   Clear
10:15 AM 66.0 °F 46.4 °F 49% 30.04 in 10.0 mi ENE 5.8 mph - N/A   Clear
10:35 AM 66.4 °F 46.4 °F 49% 30.05 in 10.0 mi ENE 4.6 mph - N/A   Clear
10:55 AM 67.8 °F 46.9 °F 47% 30.04 in 10.0 mi Calm Calm - N/A   Clear
11:15 AM 68.9 °F 46.4 °F 44% 30.04 in 10.0 mi ENE 4.6 mph - N/A   Clear
11:35 AM 70.0 °F 46.8 °F 43% 30.04 in 10.0 mi NE 3.5 mph - N/A   Clear
12:15 PM 71.6 °F 47.3 °F 42% 30.02 in 10.0 mi NE 3.5 mph - N/A   Clear
12:35 PM 72.5 °F 47.5 °F 41% 30.01 in 10.0 mi NNE 4.6 mph - N/A   Clear
12:55 PM 73.2 °F 46.8 °F 39% 30.00 in 10.0 mi East 6.9 mph - N/A   Clear
1:15 PM 73.6 °F 46.0 °F 37% 29.99 in 10.0 mi Calm Calm - N/A   Clear
1:35 PM 75.0 °F 46.6 °F 36% 29.99 in 10.0 mi SE 3.5 mph - N/A   Clear
1:55 PM 75.9 °F 46.6 °F 35% 29.98 in 10.0 mi West 4.6 mph - N/A   Clear
2:15 PM 75.9 °F 46.8 °F 36% 29.97 in 10.0 mi NE 3.5 mph - N/A   Clear
2:35 PM 77.5 °F 43.5 °F 30% 29.97 in 10.0 mi Calm Calm - N/A   Clear
2:55 PM 77.4 °F 43.3 °F 30% 29.97 in 10.0 mi Calm Calm - N/A   Clear
3:15 PM 78.8 °F 45.3 °F 31% 29.96 in 10.0 mi Calm Calm - N/A   Clear
3:35 PM 78.8 °F 43.9 °F 29% 29.95 in 10.0 mi SE 4.6 mph - N/A   Clear
3:55 PM 78.8 °F 42.4 °F 27% 29.94 in 10.0 mi Calm Calm - N/A   Clear
4:15 PM 79.9 °F 45.5 °F 30% 29.93 in 10.0 mi East 6.9 mph - N/A   Clear
4:35 PM 79.7 °F 40.1 °F 24% 29.93 in 10.0 mi Calm Calm - N/A   Clear
4:55 PM 79.7 °F 40.1 °F 24% 29.93 in 10.0 mi Calm Calm - N/A   Clear
5:15 PM 80.2 °F 41.7 °F 25% 29.94 in 10.0 mi SE 3.5 mph - N/A   Clear
5:35 PM 80.1 °F 42.3 °F 26% 29.94 in 10.0 mi Calm Calm - N/A   Clear
5:55 PM 79.7 °F 44.2 °F 28% 29.94 in 10.0 mi SE 4.6 mph - N/A   Clear
6:15 PM 78.4 °F 44.8 °F 30% 29.94 in 10.0 mi ESE 8.1 mph - N/A   Clear
6:35 PM 77.5 °F 45.9 °F 33% 29.94 in 10.0 mi ESE 5.8 mph - N/A   Clear
6:55 PM 75.6 °F 47.7 °F 37% 29.94 in 10.0 mi ESE 4.6 mph - N/A   Clear
7:15 PM 75.0 °F 46.8 °F 37% 29.94 in 10.0 mi ESE 4.6 mph - N/A   Clear
7:35 PM 73.4 °F 48.0 °F 41% 29.94 in 10.0 mi ESE 4.6 mph - N/A   Clear
7:55 PM 72.7 °F 47.8 °F 41% 29.95 in 10.0 mi ESE 5.8 mph - N/A   Clear
8:15 PM 71.8 °F 47.8 °F 43% 29.95 in 10.0 mi ESE 5.8 mph - N/A   Clear
8:35 PM 71.1 °F 48.2 °F 44% 29.96 in 10.0 mi ESE 5.8 mph - N/A   Clear
8:55 PM 70.3 °F 48.9 °F 47% 29.96 in 10.0 mi ESE 4.6 mph - N/A   Clear
9:15 PM 68.2 °F 50.4 °F 53% 29.96 in 10.0 mi East 3.5 mph - N/A   Clear
9:55 PM 66.2 °F 50.9 °F 58% 29.98 in 10.0 mi East 6.9 mph - N/A   Clear
10:15 PM 66.9 °F 51.6 °F 58% 29.99 in 10.0 mi ESE 8.1 mph - N/A   Clear
10:35 PM 65.8 °F 52.7 °F 62% 30.00 in 10.0 mi East 6.9 mph - N/A   Clear
10:55 PM 64.8 °F 53.1 °F 66% 30.00 in 10.0 mi East 4.6 mph - N/A   Clear
11:15 PM 64.0 °F 52.9 °F 67% 30.00 in 10.0 mi East 8.1 mph - N/A   Clear
11:35 PM 62.8 °F 52.9 °F 70% 30.01 in 10.0 mi East 6.9 mph - N/A   Clear
11:55 PM 61.7 °F 52.2 °F 71% 30.02 in 10.0 mi East 9.2 mph 13.8 mph N/A   Clear